#timestamp,LO_Frequency,Hit,StdDev 
1527220815.8,286046999.8,N
1527220835.6,286047000.1,N
1527220855.5,286047000.1,N
1527220875.3,286046999.8,N
1527220895.2,286047000.5,N
1527220915.9,286047000.4,N
1527220935.7,286047000.3,N
1527220955.6,286047002.8,N
1527220975.4,286047002.4,N
1527220995.2,286047002.2,N
1527221015.1,286047002.8,N
1527221016.0,286047002.8,N
1527221035.8,286046998.1,N
1527221055.7,286046998.5,N
1527221075.5,286047000.5,N
1527221095.3,286047000.4,N
1527221115.2,286046998.5,N
1527221135.0,286047000.7,N
1527221135.9,286047000.7,N
1527221155.8,286047000.2,N
1527221175.6,286047000.3,N
1527221195.4,286046998.1,N
1527221215.3,286046998.4,N
1527221235.1,286046998.1,N
1527221255.8,286046999.9,N
1527221275.7,286047000.6,N
1527221295.5,286047000.8,N
1527221315.4,286047000.7,N
1527221335.2,286047000.2,N
1527221355.0,286047001.0,N
1527221355.9,286047001.0,N
1527221375.8,286047000.3,N
1527221395.6,286046998.2,N
1527221415.5,286046998.4,N
1527221435.3,286046998.9,N
1527221455.1,286046998.6,N
1527221475.9,286047000.8,N
1527221495.7,286046999.9,N
1527221515.5,286047000.7,N
1527221535.4,286047000.3,N
1527221555.2,286047000.5,N
1527221575.1,286047000.8,N
1527221576.0,286047000.8,N
1527221595.8,286047001.2,N
1527221615.6,286047000.0,N
1527221635.5,286047001.5,N
1527221655.3,286047002.1,N
1527221675.2,286047002.6,N
1527221695.9,286047002.0,N
1527221715.7,286047001.5,N
1527221735.6,286047001.4,N
1527221755.4,286047005.6,Y
1527221775.3,286047003.3,P
1527221795.1,286047003.9,N
1527221796.0,286047003.9,N
1527221815.8,286047004.2,N
1527221835.7,286047005.9,Y
1527221855.5,286047003.2,P
1527221875.4,286047005.5,P
1527221895.2,286047005.4,P
1527221915.0,286047004.7,Y
1527221915.9,286047004.7,P
1527221935.8,286047000.3,N
1527221955.6,286047001.0,N
1527221975.4,286047002.3,N
1527221995.3,286047002.4,N
1527222015.1,286047004.3,N
1527222035.9,286047001.2,N
1527222055.7,286047002.8,N
1527222075.5,286046998.3,N
1527222095.4,286046998.6,N
1527222115.2,286047001.0,N
1527222135.0,286046998.5,N
1527222135.9,286046998.5,N
1527222155.8,286046999.4,N
1527222175.6,286047001.1,N
1527222195.5,286046998.9,N
1527222215.3,286046999.3,N
1527222235.1,286046999.6,N
1527222255.9,286046996.6,N
1527222275.7,286046997.4,N
1527222295.5,286046996.8,N
1527222315.4,286046999.2,N
1527222335.2,286046996.9,N
1527222355.1,286046996.8,N
1527222356.0,286046996.8,N
1527222375.8,286046999.3,N
1527222395.6,286046997.1,N
1527222415.5,286046997.1,N
1527222435.3,286046995.4,N
1527222455.1,286046997.7,N
1527222475.9,286046997.8,N
1527222495.7,286046996.8,N
1527222515.6,286046998.3,N
1527222535.4,286046998.1,N
1527222555.2,286047001.1,N
1527222575.1,286046997.5,N
1527222576.0,286046997.5,N
1527222595.8,286046997.9,N
1527222615.7,286046997.6,N
1527222635.5,286046997.9,N
1527222655.3,286046995.3,Y
1527222675.2,286046996.8,P
1527222695.0,286046996.8,P
1527222695.9,286046996.8,P
1527222715.8,286046996.7,Y
1527222735.6,286047000.2,P
1527222755.4,286047000.5,N
1527222775.3,286047000.7,N
1527222795.1,286047000.5,N
1527222815.8,286047000.5,N
1527222835.7,286046998.5,N
1527222855.5,286047000.4,N
1527222875.4,286047000.5,N
1527222895.2,286046999.9,N
1527222915.0,286046998.8,N
1527222915.9,286046998.8,N
1527222935.8,286047001.2,N
1527222955.6,286046999.7,N
1527222975.4,286047000.2,N
1527222995.3,286047000.3,N
1527223015.1,286046999.8,N
1527223035.9,286047001.0,N
1527223055.7,286047000.7,N
1527223075.5,286047001.0,N
1527223095.4,286046998.1,N
1527223115.2,286046999.4,N
1527223135.0,286046998.3,N
1527223135.9,286046998.3,N
1527223155.8,286046998.1,N
1527223175.6,286046999.5,N
1527223195.5,286046996.5,Y
1527223215.3,286046999.5,P
1527223235.1,286046999.2,P
1527223255.9,286047000.6,N
1527223275.7,286046998.5,N
1527223295.5,286046999.3,N
1527223315.4,286047011.9,Y
1527223335.2,286047000.0,P
1527223355.1,286046999.7,N
1527223356.0,286046999.7,N
1527223375.8,286046998.2,Y
1527223395.6,286046998.2,P
1527223415.5,286047000.7,N
1527223435.3,286047000.8,N
1527223455.2,286046998.6,N
1527223475.9,286046998.8,N
1527223495.7,286046998.4,N
1527223515.6,286047002.3,N
1527223535.4,286047000.5,N
1527223555.2,286047000.2,N
1527223575.1,286047000.5,N
1527223576.0,286047000.5,N
1527223595.8,286046998.8,N
1527223615.7,286046998.4,N
1527223635.5,286047000.7,N
1527223655.3,286047001.2,N
1527223675.2,286047001.2,N
1527223695.0,286046998.1,N
1527223695.9,286046998.1,N
1527223715.8,286046999.0,N
1527223735.6,286046997.4,N
1527223755.4,286046996.8,N
1527223775.3,286046999.5,N
1527223795.1,286046996.9,N
1527223815.8,286046997.1,N
1527223835.7,286046999.0,N
1527223855.5,286046998.9,N
1527223875.4,286046998.5,N
1527223895.2,286046999.5,N
1527223915.0,286046999.3,N
1527223915.9,286046999.3,N
1527223935.8,286046998.1,N
1527223955.6,286046998.4,N
1527223975.4,286046998.8,N
1527223995.3,286046998.3,N
1527224015.1,286047001.2,N
1527224035.9,286046999.0,N
1527224055.7,286046998.7,N
1527224075.5,286047000.4,N
1527224095.4,286047000.1,N
1527224115.2,286047000.4,N
1527224135.0,286046998.3,N
1527224135.9,286046998.3,N
1527224155.8,286046999.4,N
1527224175.6,286046996.6,N
1527224195.5,286046996.3,Y
1527224215.3,286046995.2,P
1527224235.1,286046997.8,N
1527224255.9,286046995.6,N
1527224275.7,286046995.8,N
1527224295.6,286046995.4,Y
1527224315.4,286046999.1,P
1527224335.2,286046998.8,N
1527224355.1,286046998.9,N
1527224356.0,286046998.9,N
1527224375.8,286046997.4,N
1527224395.7,286046997.8,N
